Time,TemperatureF,DewpointF,PressureIn,WindDirection,WindDirectionDegrees,WindSpeedMPH,WindSpeedGustMPH,Humidity,HourlyPrecipIn,Conditions,Clouds,dailyrainin,SoftwareType,DateUTC
2013-07-04 00:02:00,54.0,54.0,30.19,North,0,0.0,0.0,99,0.00,,,0.00,,2013-07-04 07:02:00,
2013-07-04 00:11:00,54.0,54.0,30.18,North,0,0.0,0.0,100,0.00,,,0.00,,2013-07-04 07:11:00,
2013-07-04 00:34:00,54.0,54.0,30.19,North,0,0.0,6.0,100,0.00,,,0.00,,2013-07-04 07:34:00,
2013-07-04 00:43:00,54.0,54.0,30.19,North,0,0.0,0.0,100,0.00,,,0.00,,2013-07-04 07:43:00,
2013-07-04 00:52:00,54.0,54.0,30.19,North,0,0.0,0.0,100,0.00,,,0.00,,2013-07-04 07:52:00,
2013-07-04 01:02:00,54.0,54.0,30.18,North,0,0.0,0.0,100,0.00,,,0.00,,2013-07-04 08:02:00,
2013-07-04 01:11:00,53.0,53.0,30.18,North,1,0.0,3.0,100,0.00,,,0.00,,2013-07-04 08:11:00,
2013-07-04 01:33:00,53.0,53.0,30.19,North,0,0.0,5.0,100,0.00,,,0.00,,2013-07-04 08:33:00,
2013-07-04 01:42:00,53.0,53.0,30.19,North,0,0.0,0.0,100,0.00,,,0.00,,2013-07-04 08:42:00,
2013-07-04 01:52:00,53.0,53.0,30.19,North,0,0.0,0.0,100,0.00,,,0.00,,2013-07-04 08:52:00,
2013-07-04 02:02:00,53.0,53.0,30.19,North,0,0.0,0.0,100,0.00,,,0.00,,2013-07-04 09:02:00,
2013-07-04 02:11:00,53.0,53.0,30.19,North,0,0.0,0.0,100,0.00,,,0.00,,2013-07-04 09:11:00,
2013-07-04 02:22:00,52.0,52.0,30.18,North,0,0.0,0.0,100,0.00,,,0.00,,2013-07-04 09:22:00,
2013-07-04 02:32:00,52.0,52.0,30.18,North,0,0.0,0.0,100,0.00,,,0.00,,2013-07-04 09:32:00,
2013-07-04 02:42:00,52.0,52.0,30.18,North,0,0.0,0.0,100,0.00,,,0.00,,2013-07-04 09:42:00,
2013-07-04 02:52:00,52.0,52.0,30.18,North,0,0.0,0.0,100,0.00,,,0.00,,2013-07-04 09:52:00,
2013-07-04 03:01:00,52.0,52.0,30.18,North,0,0.0,0.0,100,0.00,,,0.00,,2013-07-04 10:01:00,
2013-07-04 03:11:00,52.0,52.0,30.18,North,0,0.0,0.0,100,0.00,,,0.00,,2013-07-04 10:11:00,
2013-07-04 03:22:00,52.0,52.0,30.18,North,0,0.0,0.0,100,0.00,,,0.00,,2013-07-04 10:22:00,
2013-07-04 03:33:00,52.0,52.0,30.19,North,0,0.0,0.0,100,0.00,,,0.00,,2013-07-04 10:33:00,
2013-07-04 03:42:00,52.0,52.0,30.19,North,0,0.0,0.0,100,0.00,,,0.00,,2013-07-04 10:42:00,
2013-07-04 03:53:00,51.0,51.0,30.19,North,0,0.0,0.0,100,0.00,,,0.00,,2013-07-04 10:53:00,
2013-07-04 04:02:00,51.0,51.0,30.19,North,0,0.0,0.0,100,0.00,,,0.00,,2013-07-04 11:02:00,
2013-07-04 04:11:00,51.0,51.0,30.19,North,0,0.0,0.0,100,0.00,,,0.00,,2013-07-04 11:11:00,
2013-07-04 04:22:00,51.0,51.0,30.19,North,0,0.0,0.0,100,0.00,,,0.00,,2013-07-04 11:22:00,
2013-07-04 04:33:00,51.0,51.0,30.19,North,0,0.0,0.0,100,0.00,,,0.00,,2013-07-04 11:33:00,
2013-07-04 04:43:00,51.0,51.0,30.19,North,0,0.0,0.0,100,0.00,,,0.00,,2013-07-04 11:43:00,
2013-07-04 04:53:00,51.0,51.0,30.19,North,0,0.0,0.0,100,0.00,,,0.00,,2013-07-04 11:53:00,
2013-07-04 05:01:00,51.0,51.0,30.19,North,0,0.0,0.0,100,0.00,,,0.00,,2013-07-04 12:01:00,
2013-07-04 05:11:00,51.0,51.0,30.19,North,0,0.0,0.0,100,0.00,,,0.00,,2013-07-04 12:11:00,
2013-07-04 05:22:00,51.0,51.0,30.19,North,0,0.0,0.0,100,0.00,,,0.00,,2013-07-04 12:22:00,
2013-07-04 05:43:00,51.0,51.0,30.19,North,0,0.0,0.0,100,0.00,,,0.00,,2013-07-04 12:43:00,
2013-07-04 05:52:00,51.0,51.0,30.20,North,0,0.0,0.0,100,0.00,,,0.00,,2013-07-04 12:52:00,
2013-07-04 06:11:00,51.0,51.0,30.20,North,0,0.0,0.0,100,0.00,,,0.00,,2013-07-04 13:11:00,
2013-07-04 07:02:00,52.0,52.0,30.21,North,0,0.0,0.0,100,0.00,,,0.00,,2013-07-04 14:02:00,
2013-07-04 07:11:00,52.0,52.0,30.21,North,0,0.0,0.0,100,0.00,,,0.00,,2013-07-04 14:11:00,
2013-07-04 07:43:00,54.0,54.0,30.21,ENE,60,0.0,3.0,100,0.00,,,0.00,,2013-07-04 14:43:00,
2013-07-04 07:53:00,54.0,54.0,30.21,NE,36,0.0,3.0,100,0.00,,,0.00,,2013-07-04 14:53:00,
2013-07-04 08:01:00,55.0,55.0,30.21,NNE,14,0.0,9.0,100,0.00,,,0.00,,2013-07-04 15:01:00,
2013-07-04 08:33:00,56.0,55.0,30.21,NNE,22,0.0,10.0,98,0.00,,,0.00,,2013-07-04 15:33:00,
2013-07-04 08:43:00,57.0,56.0,30.21,WNW,292,6.0,10.0,96,0.00,,,0.00,,2013-07-04 15:43:00,
2013-07-04 08:52:00,57.0,56.0,30.22,NW,310,5.0,10.0,96,0.00,,,0.00,,2013-07-04 15:52:00,
2013-07-04 09:01:00,56.0,55.0,30.22,WNW,301,0.0,11.0,97,0.00,,,0.00,,2013-07-04 16:01:00,
2013-07-04 09:11:00,55.0,54.0,30.22,NW,322,5.0,8.0,96,0.00,,,0.00,,2013-07-04 16:11:00,
2013-07-04 09:22:00,55.0,54.0,30.22,NW,317,1.0,8.0,97,0.00,,,0.00,,2013-07-04 16:22:00,
2013-07-04 09:33:00,56.0,55.0,30.22,NE,40,4.0,11.0,96,0.00,,,0.00,,2013-07-04 16:33:00,
2013-07-04 09:42:00,56.0,55.0,30.21,North,0,5.0,11.0,95,0.00,,,0.00,,2013-07-04 16:42:00,
2013-07-04 09:52:00,57.0,56.0,30.21,North,8,2.0,12.0,95,0.00,,,0.00,,2013-07-04 16:52:00,
2013-07-04 10:01:00,56.0,54.0,30.21,NE,42,7.0,13.0,94,0.00,,,0.00,,2013-07-04 17:01:00,
2013-07-04 10:11:00,58.0,56.0,30.20,WNW,295,4.0,9.0,94,0.00,,,0.00,,2013-07-04 17:11:00,
2013-07-04 10:22:00,58.0,56.0,30.20,NNE,28,7.0,14.0,92,0.00,,,0.00,,2013-07-04 17:22:00,
2013-07-04 10:33:00,58.0,56.0,30.20,North,355,9.0,16.0,92,0.00,,,0.00,,2013-07-04 17:33:00,
2013-07-04 10:43:00,58.0,56.0,30.20,North,4,7.0,14.0,92,0.00,,,0.00,,2013-07-04 17:43:00,
2013-07-04 10:53:00,58.0,56.0,30.20,NW,309,7.0,17.0,92,0.00,,,0.00,,2013-07-04 17:53:00,
2013-07-04 11:01:00,58.0,56.0,30.20,NW,309,7.0,17.0,92,0.00,,,0.00,,2013-07-04 18:01:00,
2013-07-04 11:11:00,59.0,57.0,30.20,NNE,18,8.0,14.0,92,0.00,,,0.00,,2013-07-04 18:11:00,
2013-07-04 11:33:00,58.0,56.0,30.20,NNW,336,5.0,20.0,92,0.00,,,0.00,,2013-07-04 18:33:00,
2013-07-04 11:43:00,58.0,56.0,30.20,NNE,16,7.0,20.0,92,0.00,,,0.00,,2013-07-04 18:43:00,
2013-07-04 11:52:00,58.0,56.0,30.20,NNW,344,8.0,20.0,92,0.00,,,0.00,,2013-07-04 18:52:00,
2013-07-04 12:01:00,59.0,57.0,30.20,NNE,12,8.0,17.0,92,0.00,,,0.00,,2013-07-04 19:01:00,
2013-07-04 12:11:00,58.0,56.0,30.20,North,11,9.0,18.0,92,0.00,,,0.00,,2013-07-04 19:11:00,
2013-07-04 12:22:00,59.0,57.0,30.20,NNE,33,11.0,18.0,92,0.00,,,0.00,,2013-07-04 19:22:00,
2013-07-04 12:33:00,59.0,57.0,30.20,NNW,333,7.0,15.0,93,0.00,,,0.00,,2013-07-04 19:33:00,
2013-07-04 12:52:00,59.0,57.0,30.20,NNE,21,4.0,17.0,92,0.00,,,0.00,,2013-07-04 19:52:00,
2013-07-04 13:01:00,59.0,57.0,30.20,NW,326,7.0,19.0,92,0.00,,,0.00,,2013-07-04 20:01:00,
2013-07-04 13:11:00,59.0,57.0,30.20,NE,50,6.0,19.0,92,0.00,,,0.00,,2013-07-04 20:11:00,
2013-07-04 13:33:00,59.0,57.0,30.19,North,4,6.0,18.0,92,0.00,,,0.00,,2013-07-04 20:33:00,
2013-07-04 13:42:00,60.0,57.0,30.19,NNE,19,7.0,18.0,91,0.00,,,0.00,,2013-07-04 20:42:00,
2013-07-04 13:53:00,59.0,56.0,30.19,NNE,25,5.0,15.0,91,0.00,,,0.00,,2013-07-04 20:53:00,
2013-07-04 14:01:00,60.0,57.0,30.19,North,4,6.0,15.0,91,0.00,,,0.00,,2013-07-04 21:01:00,
2013-07-04 14:11:00,59.0,56.0,30.19,NNE,28,8.0,20.0,91,0.00,,,0.00,,2013-07-04 21:11:00,
2013-07-04 14:22:00,59.0,57.0,30.19,NNE,14,6.0,20.0,92,0.00,,,0.00,,2013-07-04 21:22:00,
2013-07-04 14:32:00,60.0,58.0,30.19,NW,326,7.0,12.0,93,0.00,,,0.00,,2013-07-04 21:32:00,
2013-07-04 14:42:00,60.0,58.0,30.19,North,2,7.0,16.0,92,0.00,,,0.00,,2013-07-04 21:42:00,
2013-07-04 14:52:00,59.0,57.0,30.18,NNW,329,7.0,16.0,93,0.00,,,0.00,,2013-07-04 21:52:00,
2013-07-04 15:01:00,60.0,58.0,30.18,North,1,9.0,15.0,93,0.00,,,0.00,,2013-07-04 22:01:00,
2013-07-04 15:11:00,59.0,57.0,30.18,NNE,14,5.0,15.0,93,0.00,,,0.00,,2013-07-04 22:11:00,
2013-07-04 15:22:00,59.0,57.0,30.18,NNE,16,7.0,15.0,93,0.00,,,0.00,,2013-07-04 22:22:00,
2013-07-04 15:33:00,59.0,57.0,30.17,ENE,57,7.0,13.0,94,0.00,,,0.00,,2013-07-04 22:33:00,
2013-07-04 15:43:00,60.0,58.0,30.18,NNW,334,6.0,13.0,94,0.00,,,0.00,,2013-07-04 22:43:00,
2013-07-04 15:52:00,59.0,57.0,30.17,NNW,336,6.0,15.0,94,0.00,,,0.00,,2013-07-04 22:52:00,
2013-07-04 16:01:00,59.0,57.0,30.17,NNW,336,6.0,15.0,94,0.00,,,0.00,,2013-07-04 23:01:00,
2013-07-04 16:11:00,59.0,57.0,30.17,NNW,336,6.0,15.0,94,0.00,,,0.00,,2013-07-04 23:11:00,
2013-07-04 16:23:00,59.0,57.0,30.17,NE,46,4.0,15.0,93,0.00,,,0.00,,2013-07-04 23:23:00,
2013-07-04 16:33:00,59.0,57.0,30.17,WNW,298,6.0,11.0,94,0.00,,,0.00,,2013-07-04 23:33:00,
2013-07-04 16:43:00,59.0,57.0,30.17,NW,323,10.0,19.0,94,0.00,,,0.00,,2013-07-04 23:43:00,
2013-07-04 16:52:00,59.0,58.0,30.16,NNE,16,7.0,19.0,95,0.00,,,0.00,,2013-07-04 23:52:00,
2013-07-04 17:01:00,58.0,57.0,30.16,NNE,23,8.0,19.0,95,0.00,,,0.00,,2013-07-05 00:01:00,
2013-07-04 17:11:00,58.0,57.0,30.16,NNE,23,8.0,19.0,95,0.00,,,0.00,,2013-07-05 00:11:00,
2013-07-04 17:21:00,59.0,58.0,30.16,NNE,28,6.0,14.0,95,0.00,,,0.00,,2013-07-05 00:21:00,
2013-07-04 17:32:00,59.0,58.0,30.16,NE,42,8.0,17.0,95,0.00,,,0.00,,2013-07-05 00:32:00,
2013-07-04 17:43:00,58.0,57.0,30.15,NE,36,5.0,16.0,95,0.00,,,0.00,,2013-07-05 00:43:00,
2013-07-04 17:52:00,58.0,57.0,30.15,NNE,26,5.0,17.0,95,0.00,,,0.00,,2013-07-05 00:52:00,
2013-07-04 18:01:00,58.0,56.0,30.15,North,9,10.0,17.0,94,0.00,,,0.00,,2013-07-05 01:01:00,
2013-07-04 18:11:00,58.0,56.0,30.15,North,9,10.0,17.0,94,0.00,,,0.00,,2013-07-05 01:11:00,
2013-07-04 18:21:00,58.0,56.0,30.15,NNE,21,9.0,17.0,94,0.00,,,0.00,,2013-07-05 01:21:00,
2013-07-04 18:32:00,58.0,56.0,30.15,North,4,8.0,14.0,94,0.00,,,0.00,,2013-07-05 01:32:00,
2013-07-04 18:42:00,58.0,56.0,30.15,North,4,8.0,14.0,94,0.00,,,0.00,,2013-07-05 01:42:00,
2013-07-04 18:52:00,58.0,57.0,30.15,NNE,19,9.0,19.0,95,0.00,,,0.00,,2013-07-05 01:52:00,
2013-07-04 19:02:00,58.0,57.0,30.14,NNE,18,4.0,19.0,95,0.00,,,0.00,,2013-07-05 02:02:00,
2013-07-04 19:11:00,58.0,57.0,30.14,NNE,18,4.0,19.0,95,0.00,,,0.00,,2013-07-05 02:11:00,
2013-07-04 19:21:00,58.0,57.0,30.14,NNE,29,5.0,19.0,95,0.00,,,0.00,,2013-07-05 02:21:00,
2013-07-04 19:32:00,58.0,57.0,30.14,North,9,7.0,14.0,95,0.00,,,0.00,,2013-07-05 02:32:00,
2013-07-04 19:42:00,58.0,57.0,30.14,NNE,12,10.0,17.0,95,0.00,,,0.00,,2013-07-05 02:42:00,
2013-07-04 19:52:00,58.0,57.0,30.14,NNE,12,10.0,17.0,95,0.00,,,0.00,,2013-07-05 02:52:00,
2013-07-04 20:02:00,57.0,56.0,30.14,North,8,9.0,17.0,96,0.00,,,0.00,,2013-07-05 03:02:00,
2013-07-04 20:11:00,57.0,56.0,30.14,North,8,9.0,17.0,96,0.00,,,0.00,,2013-07-05 03:11:00,
2013-07-04 20:21:00,57.0,56.0,30.14,North,8,9.0,17.0,96,0.00,,,0.00,,2013-07-05 03:21:00,
2013-07-04 20:32:00,56.0,55.0,30.14,NNE,19,7.0,17.0,96,0.00,,,0.00,,2013-07-05 03:32:00,
2013-07-04 20:42:00,56.0,55.0,30.14,NNE,15,7.0,18.0,96,0.00,,,0.00,,2013-07-05 03:42:00,
2013-07-04 20:52:00,55.0,54.0,30.14,NE,37,3.0,18.0,98,0.00,,,0.00,,2013-07-05 03:52:00,
2013-07-04 21:01:00,56.0,55.0,30.13,NE,39,0.0,18.0,98,0.00,,,0.00,,2013-07-05 04:01:00,
2013-07-04 21:11:00,56.0,55.0,30.13,North,5,5.0,18.0,98,0.00,,,0.00,,2013-07-05 04:11:00,
2013-07-04 21:21:00,56.0,55.0,30.13,North,0,2.0,15.0,98,0.00,,,0.00,,2013-07-05 04:21:00,
2013-07-04 21:33:00,56.0,55.0,30.13,NE,37,6.0,15.0,98,0.00,,,0.00,,2013-07-05 04:33:00,
2013-07-04 21:43:00,55.0,54.0,30.14,North,9,0.0,8.0,97,0.00,,,0.00,,2013-07-05 04:43:00,
2013-07-04 21:53:00,55.0,54.0,30.14,North,0,0.0,8.0,98,0.00,,,0.00,,2013-07-05 04:53:00,
2013-07-04 22:01:00,54.0,53.0,30.14,North,0,0.0,0.0,98,0.00,,,0.00,,2013-07-05 05:01:00,
2013-07-04 22:11:00,54.0,53.0,30.14,North,0,0.0,0.0,98,0.00,,,0.00,,2013-07-05 05:11:00,
2013-07-04 22:33:00,54.0,53.0,30.15,North,5,4.0,8.0,98,0.00,,,0.00,,2013-07-05 05:33:00,
2013-07-04 22:43:00,54.0,53.0,30.15,North,4,0.0,15.0,98,0.00,,,0.00,,2013-07-05 05:43:00,
2013-07-04 22:52:00,54.0,53.0,30.15,North,0,0.0,15.0,98,0.00,,,0.00,,2013-07-05 05:52:00,
2013-07-04 23:01:00,54.0,53.0,30.15,NE,36,0.0,7.0,98,0.00,,,0.00,,2013-07-05 06:01:00,
2013-07-04 23:12:00,54.0,53.0,30.14,North,0,0.0,0.0,98,0.00,,,0.00,,2013-07-05 06:12:00,
2013-07-04 23:23:00,54.0,53.0,30.14,North,0,0.0,5.0,98,0.00,,,0.00,,2013-07-05 06:23:00,
2013-07-04 23:34:00,54.0,53.0,30.14,North,0,0.0,5.0,98,0.00,,,0.00,,2013-07-05 06:34:00,
2013-07-04 23:43:00,54.0,54.0,30.14,North,0,0.0,0.0,99,0.00,,,0.00,,2013-07-05 06:43:00,
2013-07-04 23:52:00,54.0,54.0,30.14,North,0,0.0,0.0,99,0.00,,,0.00,,2013-07-05 06:52:00,